Ainsworth, NE

11:48 PM CST on February 20, 2018 (GMT -0600)
Ainsworth Municipal

Weather History for KANW - September, 2013

Change the Weather History Date:

Wednesday, September 18, 2013

  Actual Average Record
Temperature  
Mean Temperature 78 °F -  
Max Temperature 95 °F 71 °F 95 °F (2013)
Min Temperature 62 °F 47 °F 37 °F (2003)
Cooling Degree Days 14    
Growing Degree Days 28 (Base 50)    
Moisture  
Dew Point 62 °F    
Average Humidity 67    
Maximum Humidity 98    
Minimum Humidity 25    
Precipitation  
Precipitation 0.00 in - - ()
Sea Level Pressure  
Sea Level Pressure 29.69 in    
Wind  
Wind Speed 10 mph (South)    
Max Wind Speed 15 mph    
Max Gust Speed 21 mph    
Visibility 10 miles    
Events      
Averages and records for this station are not official NWS values.
T = Trace of Precipitation, MM = Missing Value Source: NWS Daily Summary

Daily Weather History Graph

Daily Weather History Graph

Search for Another Location

Airport or City:

Trip Planner

Search our weather history database for the weather conditions in past years. The results will help you decide how hot, cold, wet, or windy it might be!

Date:

Astronomy

Sep. 18, 2013 Rise Set
Actual Time 7:23 AM CDT 7:43 PM CDT
Civil Twilight 6:55 AM CDT 8:12 PM CDT
Nautical Twilight 6:21 AM CDT 8:45 PM CDT
Astronomical Twilight 5:47 AM CDT 9:19 PM CDT
Moon 7:07 PM CDT (9/18) 6:27 AM CDT (9/18)
Length of Visible Light 13h 16m
Length of Day
12h 20m
Waxing Gibbous, 99% of the Moon is Illuminated
Sep 18
Waxing Gibbous
Sep 19
Full
Sep 26
Last Quarter
Oct 4
New
Oct 11
First Quarter

Hourly Weather History & Observations

Time (CDT) Temp. Heat Index Dew Point Humidity Pressure Visibility Wind Dir Wind Speed Gust Speed Precip Events Conditions
12:15 AM 68.2 °F - 66.6 °F 95% 29.77 in 7.0 mi South 11.5 mph - N/A   Clear
12:35 AM 68.0 °F - 66.6 °F 95% 29.76 in 7.0 mi South 12.7 mph - N/A   Clear
12:55 AM 67.8 °F - 66.4 °F 95% 29.76 in 4.0 mi South 11.5 mph - N/A   Clear
1:15 AM 67.5 °F - 66.2 °F 96% 29.75 in 7.0 mi South 9.2 mph - N/A   Clear
1:35 AM 67.3 °F - 65.8 °F 95% 29.74 in 7.0 mi South 11.5 mph - N/A   Clear
1:55 AM 67.3 °F - 65.8 °F 95% 29.74 in 7.0 mi South 11.5 mph - N/A   Clear
2:15 AM 67.1 °F - 65.5 °F 95% 29.74 in 7.0 mi South 11.5 mph - N/A   Clear
2:35 AM 67.1 °F - 65.5 °F 95% 29.74 in 7.0 mi South 10.4 mph - N/A   Clear
2:55 AM 67.1 °F - 65.5 °F 95% 29.73 in 10.0 mi South 12.7 mph - N/A   Clear
3:15 AM 67.1 °F - 65.3 °F 94% 29.74 in 10.0 mi South 13.8 mph - N/A   Clear
3:35 AM 66.7 °F - 64.9 °F 94% 29.74 in 10.0 mi South 10.4 mph - N/A   Clear
3:55 AM 66.4 °F - 64.4 °F 93% 29.74 in 10.0 mi South 8.1 mph - N/A   Clear
4:15 AM 66.0 °F - 64.4 °F 94% 29.73 in 10.0 mi South 9.2 mph - N/A   Clear
4:35 AM 66.2 °F - 64.4 °F 94% 29.73 in 10.0 mi South 9.2 mph - N/A   Clear
4:55 AM 64.6 °F - 63.1 °F 95% 29.73 in 10.0 mi South 5.8 mph - N/A   Clear
5:15 AM 63.0 °F - 62.2 °F 97% 29.72 in 7.0 mi South 6.9 mph - N/A   Clear
5:35 AM 62.8 °F - 62.2 °F 98% 29.71 in 7.0 mi South 6.9 mph - N/A   Clear
5:55 AM 62.6 °F - 62.1 °F 98% 29.71 in 7.0 mi South 6.9 mph - N/A   Clear
6:15 AM 63.0 °F - 62.4 °F 98% 29.71 in 10.0 mi South 8.1 mph - N/A   Clear
6:35 AM 62.8 °F - 62.1 °F 97% 29.71 in 10.0 mi South 6.9 mph - N/A   Clear
6:55 AM 62.8 °F - 61.9 °F 97% 29.71 in 10.0 mi South 8.1 mph - N/A   Clear
7:15 AM 62.6 °F - 61.9 °F 97% 29.71 in 10.0 mi South 9.2 mph - N/A   Clear
7:35 AM 62.2 °F - 61.5 °F 97% 29.71 in 10.0 mi South 8.1 mph - N/A   Clear
7:55 AM 63.0 °F - 62.1 °F 97% 29.71 in 10.0 mi South 10.4 mph - N/A   Clear
8:15 AM 64.6 °F - 63.0 °F 94% 29.71 in 10.0 mi South 10.4 mph - N/A   Clear
8:35 AM 65.5 °F - 63.5 °F 93% 29.71 in 10.0 mi South 11.5 mph - N/A   Clear
8:55 AM 67.3 °F - 64.2 °F 90% 29.71 in 10.0 mi South 11.5 mph - N/A   Clear
9:15 AM 68.4 °F - 64.2 °F 87% 29.71 in 10.0 mi South 12.7 mph - N/A   Clear
9:35 AM 70.2 °F - 64.9 °F 83% 29.71 in 10.0 mi SSW 11.5 mph - N/A   Clear
9:55 AM 71.4 °F - 64.9 °F 80% 29.71 in 10.0 mi South 12.7 mph - N/A   Clear
10:15 AM 73.6 °F - 65.3 °F 75% 29.71 in 10.0 mi South 12.7 mph - N/A   Clear
10:35 AM 75.9 °F - 65.5 °F 70% 29.72 in 10.0 mi South 10.4 mph - N/A   Clear
10:55 AM 77.0 °F - 65.3 °F 67% 29.71 in 10.0 mi South 10.4 mph - N/A   Clear
11:15 AM 78.3 °F - 65.5 °F 65% 29.71 in 10.0 mi South 11.5 mph - N/A   Clear
11:35 AM 80.4 °F 82.4 °F 65.7 °F 61% 29.72 in 10.0 mi SSW 10.4 mph - N/A   Clear
11:55 AM 81.9 °F 83.7 °F 65.3 °F 57% 29.71 in 10.0 mi SSW 6.9 mph - N/A   Clear
12:15 PM 82.8 °F 84.5 °F 64.9 °F 55% 29.71 in 10.0 mi SSW 8.1 mph - N/A   Clear
12:35 PM 85.6 °F 86.8 °F 64.0 °F 48% 29.70 in 10.0 mi SSW 10.4 mph - N/A   Clear
12:55 PM 87.4 °F 88.5 °F 63.5 °F 45% 29.69 in 10.0 mi South 11.5 mph 18.4 mph N/A   Clear
1:15 PM 89.2 °F 89.9 °F 62.8 °F 41% 29.69 in 10.0 mi SSW 15.0 mph - N/A   Clear
1:35 PM 89.8 °F 90.7 °F 63.0 °F 41% 29.69 in 10.0 mi South 13.8 mph - N/A   Clear
1:55 PM 91.0 °F 90.9 °F 60.4 °F 36% 29.68 in 10.0 mi SSW 13.8 mph 20.7 mph N/A   Clear
2:15 PM 91.9 °F 91.5 °F 59.7 °F 34% 29.67 in 10.0 mi South 15.0 mph - N/A   Clear
2:35 PM 92.3 °F 91.6 °F 59.7 °F 33% 29.66 in 10.0 mi South 15.0 mph - N/A   Clear
2:55 PM 93.6 °F 92.1 °F 57.2 °F 29% 29.66 in 10.0 mi SSW 15.0 mph 18.4 mph N/A   Clear
3:15 PM 94.1 °F 92.8 °F 57.2 °F 29% 29.65 in 10.0 mi SSW 12.7 mph - N/A   Clear
3:35 PM 93.7 °F 92.3 °F 57.2 °F 29% 29.65 in 10.0 mi South 12.7 mph 17.3 mph N/A   Clear
3:55 PM 92.1 °F 90.0 °F 54.3 °F 28% 29.65 in 10.0 mi SW 8.1 mph - N/A   Clear
4:15 PM 95.4 °F 93.5 °F 54.9 °F 26% 29.65 in 10.0 mi SW 10.4 mph 18.4 mph N/A   Clear
4:35 PM 95.0 °F 92.7 °F 53.8 °F 25% 29.64 in 10.0 mi SSW 11.5 mph 17.3 mph N/A   Clear
4:55 PM 95.2 °F 93.0 °F 53.8 °F 25% 29.64 in 10.0 mi South 8.1 mph 16.1 mph N/A   Clear
5:15 PM 95.2 °F 93.3 °F 54.9 °F 26% 29.64 in 10.0 mi SSW 10.4 mph - N/A   Clear
5:35 PM 94.6 °F 92.3 °F 54.0 °F 25% 29.64 in 10.0 mi SSW 11.5 mph 17.3 mph N/A   Clear
5:55 PM 93.4 °F 91.3 °F 54.9 °F 27% 29.64 in 10.0 mi South 8.1 mph - N/A   Scattered Clouds
6:15 PM 92.5 °F 91.0 °F 56.8 °F 30% 29.64 in 10.0 mi South 9.2 mph - N/A   Scattered Clouds
6:35 PM 92.8 °F 90.9 °F 55.2 °F 28% 29.64 in 10.0 mi South 8.1 mph - N/A   Mostly Cloudy
6:55 PM 90.9 °F 89.4 °F 57.0 °F 32% 29.64 in 10.0 mi South 6.9 mph - N/A   Scattered Clouds
7:15 PM 85.8 °F 86.1 °F 61.5 °F 44% 29.64 in 10.0 mi South 5.8 mph - N/A   Scattered Clouds
7:35 PM 82.8 °F 83.6 °F 62.2 °F 50% 29.64 in 10.0 mi South 6.9 mph - N/A   Clear
7:55 PM 81.3 °F 82.2 °F 61.3 °F 51% 29.64 in 10.0 mi SSE 6.9 mph - N/A   Clear
8:15 PM 80.8 °F 81.8 °F 61.9 °F 52% 29.64 in 10.0 mi SSE 9.2 mph - N/A   Clear
8:35 PM 80.6 °F 81.9 °F 63.0 °F 55% 29.65 in 10.0 mi South 9.2 mph - N/A   Clear
8:55 PM 80.1 °F 81.6 °F 63.5 °F 57% 29.65 in 10.0 mi South 8.1 mph - N/A   Clear
9:15 PM 78.8 °F - 63.7 °F 60% 29.66 in 10.0 mi South 8.1 mph - N/A   Clear
9:35 PM 78.3 °F - 64.0 °F 61% 29.66 in 10.0 mi SSE 9.2 mph - N/A   Clear
9:55 PM 76.8 °F - 64.2 °F 65% 29.67 in 10.0 mi South 9.2 mph - N/A   Clear
10:15 PM 75.7 °F - 64.4 °F 68% 29.67 in 10.0 mi South 9.2 mph - N/A   Clear
10:35 PM 75.6 °F - 64.4 °F 68% 29.67 in 10.0 mi South 9.2 mph - N/A   Clear
10:55 PM 75.7 °F - 64.4 °F 68% 29.67 in 10.0 mi South 9.2 mph - N/A   Clear
11:15 PM 76.1 °F - 64.4 °F 67% 29.68 in 10.0 mi SSW 10.4 mph - N/A   Clear
11:35 PM 76.3 °F - 64.0 °F 66% 29.67 in 10.0 mi SSW 8.1 mph - N/A   Clear
11:55 PM 75.7 °F - 63.7 °F 66% 29.67 in 10.0 mi WSW 6.9 mph - N/A   Clear